Overview Statistics Trail Chart Weather Telemetry Raw packets
 

This is the latest recevied weather packets stored in our database for station/object DK6GC-10. If no packets are shown the sender has not sent any weather packets the latest 10 day(s).

<< 31 32 33 34 35 36 37 >>
Time Temp. Humidity Pressure Rain* Wind** Luminosity Snow
1787957119 17.78° C 87% 1018.3 hPa - - - -
1787956219 17.78° C 84% 1018.2 hPa - - - -
1787955319 18.33° C 84% 1018 hPa - - - -
1787954418 18.89° C 82% 1018.1 hPa - - - -
1787953518 18.89° C 78% 1018 hPa - - - -
1787952618 18.89° C 74% 1017.9 hPa - - - -
1787951718 18.89° C 80% 1017.6 hPa - - - -
1787950818 18.89° C 80% 1017.4 hPa - - - -
1787949918 19.44° C 80% 1017.3 hPa - - - -
1787949017 19.44° C 81% 1017 hPa - - - -
1787948117 19.44° C 79% 1016.9 hPa - - - -
1787947217 20° C 75% 1016.6 hPa - - - -
1787946317 20° C 78% 1016.3 hPa - - - -
1787945417 20° C 78% 1016.4 hPa - - - -
1787944516 20° C 79% 1016.2 hPa - - - -
1787943616 20° C 82% 1016.2 hPa - - - -
1787942716 20° C 80% 1016 hPa - - - -
1787941816 20° C 75% 1015.6 hPa - - - -
1787940915 20° C 76% 1015.3 hPa - - - -
1787940019 20.56° C 75% 1015.2 hPa - - - -
1787939119 21.11° C 70% 1015.1 hPa - - - -
1787938219 22.22° C 65% 1014.8 hPa - - - -
1787937318 22.78° C 59% 1014.5 hPa - - - -
1787936418 23.33° C 59% 1014.5 hPa - - - -
1787935518 23.89° C 52% 1014.1 hPa - - - -

* Rain since midnight (hover to see other rain measurements)
** Current wind speed in m/s (hover to see current wind gust speed)